Regional Weather Roundup
Issued by NWS

Home | Current Version | Previous Version | Text Only | Print | Product List | Glossary Off
Versions: 1 2 3 4 5 6 7 8 9 10 11 12 13 14 15 16 17 18 19 20 21 22 23 24 25 26 27 28 29 30 31 32 33 34 35 36 37 38 39 40 41 42 43 44 45 46 47 48 49 50

000
ASUS43 KFSD 221902
RWRSD

WEATHER ROUNDUP FOR SOUTH DAKOTA
NATIONAL WEATHER SERVICE SIOUX FALLS SD
100 PM CST SUN JAN 22 2017

NOTE: "FAIR" INDICATES FEW OR NO CLOUDS BELOW 12,000 FEET WITH NO
SIGNIFICANT WEATHER AND/OR OBSTRUCTIONS TO VISIBILITY.


SDZ001>005-009-010-012>017-222000-
NORTHWEST AND NORTH CENTRAL SOUTH DAKOTA

CITY           SKY/WX    TMP DP  RH WIND       PRES   REMARKS
BUFFALO          N/A     31  24  75 W6        29.76F WCI  25
FAITH            N/A     24  22  91 NW14      29.84F WCI  12
MOBRIDGE       CLOUDY    26  22  84 NW12      29.79F WCI  16
$$

SDZ012>016-024>037-041>051-057-063-072>074-222000-
SOUTHWEST AND SOUTH CENTRAL SOUTH DAKOTA

CITY           SKY/WX    TMP DP  RH WIND       PRES   REMARKS
RAPID CTY ARPT SUNNY     42  22  44 CALM      29.84F
PIERRE         MOSUNNY   26  22  84 NW16      29.85S WCI  14
CUSTER         SUNNY     37  14  38 W12G18    29.81F
ELLSWORTH AFB  SUNNY     41  25  52 N6        29.84S
PHILIP         SUNNY     36  27  69 W7        29.86F
PINE RIDGE     CLOUDY    35  27  72 SW6       29.87F
SPEARFISH      FAIR      39  21  48 W16       29.84S
WINNER         FAIR      40  29  64 NW14      29.84F
$$

SDZ004>011-016>023-039-040-222000-
NORTHEAST SOUTH DAKOTA

CITY           SKY/WX    TMP DP  RH WIND       PRES   REMARKS
ABERDEEN       CLOUDY    29  24  82 W12       29.81S WCI  19
WATERTOWN      FOG       28  27  96 NW12      29.75F VSB 3/4 WCI  18
BROOKINGS      CLOUDY    28  27  96 NW13      29.77R FOG     WCI  17
SISSETON         N/A     33  31  92 NW9       29.76S WCI  25
$$

SDZ017-020-022-023-036>040-048>070-222000-
SOUTHEAST SOUTH DAKOTA

CITY           SKY/WX    TMP DP  RH WIND       PRES   REMARKS
SIOUX FALLS    CLOUDY    32  31  96 W9        29.80R FOG     WCI  24
HURON          CLOUDY    27  26  96 NW12      29.82F WCI  17
CHAMBERLAIN    SUNNY     34  29  80 W14       29.84F WCI  25
MITCHELL       CLOUDY    28  26  92 NW14      29.85S FOG     WCI  17
YANKTON        MOSUNNY   36  28  75 NW12      29.82S
$$

ABBREVIATIONS USED IN REMARKS
   TC - TEMPERATURE IN CELSIUS
  WCI - WIND CHILL INDEX
   HX - HEAT INDEX
  VSB - VISIBILITY




USA.gov is the U.S. government's official web portal to all federal, state and local government web resources and services.